Regional Weather Roundup
Issued by NWS

Home | Current Version | Previous Version | Graphics & Text | Print | Product List | Glossary On
Versions: 1 2 3 4 5 6 7 8 9 10 11 12 13 14 15 16 17 18 19 20 21 22 23 24 25 26 27
000
ASUS45 KTFX 250010
RWRMT
MONTANA REGIONAL WEATHER ROUNDUP
NATIONAL WEATHER SERVICE GREAT FALLS MT
600 PM MDT SUN JUL 24 2016

NOTE: "FAIR" INDICATES FEW OR NO CLOUDS BELOW 12000 FEET WITH NO
SIGNIFICANT WEATHER AND/OR OBSTRUCTIONS TO VISIBILITY.

MTZ001>007-043-250100-
WEST OF THE DIVIDE

CITY           SKY/WX    TMP DP  RH WIND       PRES   REMARKS
KALISPELL      SUNNY     81  48  31 SE8       30.03F
MISSOULA       SUNNY     87  40  19 W8        30.03F
BUTTE          SUNNY     83  32  16 N8        30.13F
MULLAN PASS    SUNNY     70  46  42 CALM      30.23F
ANACONDA         N/A     81  43  26 N10       30.10S
DEER LODGE       N/A     82  39  21 NW6       30.12F
EUREKA           N/A     84  46  26 S5        30.01F
HAMILTON         N/A     82  45  26 NW8       30.04F
LIBBY            N/A     84  46  26 CALM      30.01F
PLAINS           N/A     90  45  21 E1        30.01F
RONAN            N/A     82  45  27 CALM      30.09F
$$

MTZ008-052>055-250100-
SOUTHWEST MONTANA

CITY           SKY/WX    TMP DP  RH WIND       PRES   REMARKS
BOZEMAN        SUNNY     84  43  23 NW8       30.08F
DILLON         SUNNY     84  41  21 W3        30.09F
W YELLOWSTONE  SUNNY     77  25  14 SW14G21   30.24F
ENNIS          SUNNY     82  32  16 NW6G12    30.16F
THREE FORKS      N/A     88  88 100 SE1       30.04F HX 121
TWIN BRIDGES     N/A     87  30  13 S2        30.07F
$$

MTZ009-010-012-014-046-048-049-054-250100-
EAST SLOPES AND CENTRAL MONTANA

CITY           SKY/WX    TMP DP  RH WIND       PRES   REMARKS
CUT BANK         N/A     83  41  22 W13G21    30.01F
GREAT FALLS    SUNNY     85  32  15 S6        30.01F
MALMSTROM AFB  SUNNY     84  34  16 N2        30.01F
HELENA         SUNNY     88  36  15 E5        30.02F
CHOTEAU          N/A     86  37  17 SE8       30.03F
CONRAD           N/A     86  45  23 SW1       30.04F
$$

MTZ011-013-016-021-045-047-050-051-250100-
NORTH CENTRAL MONTANA

CITY           SKY/WX    TMP DP  RH WIND       PRES   REMARKS
HAVRE          SUNNY     86  42  21 S10       29.97F
LEWISTOWN      SUNNY     82  45  27 VRB5      30.08S
N BAR RANCH      N/A     82  39  21 NE8       30.10S
CHINOOK          N/A     88  41  19 CALM      29.97F
$$

MTZ017>020-022>027-061-062-250100-
NORTHEAST MONTANA

CITY           SKY/WX    TMP DP  RH WIND       PRES   REMARKS
GLASGOW        SUNNY     86  47  25 NW6       29.97S
JORDAN           N/A     89  40  17 W8        29.99F
SIDNEY         SUNNY     85  58  39 S6        29.98F
WOLF POINT     MOSUNNY   90  49  24 W7G20     29.95F
PLENTYWOOD       N/A     82  55  39 NW8       29.98F
POPLAR           N/A     90  52  27 S6        29.96F
SCOBEY           N/A     97  68  38 SW2       29.99F HX 102
$$

MTZ028>42-056>058-250100-
SOUTHCENTRAL AND SOUTHEAST MONTANA

CITY           SKY/WX    TMP DP  RH WIND       PRES   REMARKS
BAKER          SUNNY     87  46  24 E9        30.04F
BILLINGS       SUNNY     89  37  16 SW6       30.02F
LIVINGSTON     SUNNY     88  32  13 NW9       30.06F
MILES CITY     SUNNY     93  40  15 VRB3      29.97F
EKALAKA          N/A     87  40  19 N1        30.03F
FORSYTH          N/A     91  43  18 NW8       29.97S
LAUREL           N/A     89  44  20 E5        30.02F
ROUNDUP          N/A     87  37  17 S2        29.94F
$$

REGIONAL REPORTS...DAKOTAS

CITY           SKY/WX    TMP DP  RH WIND       PRES   REMARKS
WILLISTON      SUNNY     88  50  27 NW7       29.98F
MINOT          SUNNY     83  57  41 NW9       29.98F
DICKINSON      SUNNY     82  46  28 W7        30.02F
CROSBY           N/A     77  61  57 NW3       30.01S
WATFORD CITY     N/A    N/A N/A N/A MISG        N/A
BISMARCK       SUNNY     84  56  38 N8        30.02S
GRAND FORKS    MOSUNNY   79  60  52 W10       29.90S
FARGO          SUNNY     80  57  45 NW13      29.94S
BUFFALO SD       N/A     90  41  18 S13G18    29.99F
RAPID CITY     SUNNY     86  47  25 S8        30.08S
$$

REGIONAL REPORTS...WYOMING/IDAHO/WASHINGTON

CITY           SKY/WX    TMP DP  RH WIND       PRES   REMARKS
GILLETTE       SUNNY     86  39  19 SE8       30.09F
SHERIDAN       SUNNY     91  38  15 CALM      30.04F
BUFFALO WY     SUNNY     87  38  17 E8G17     30.12F
CODY           SUNNY     84  37  18 E7        30.10F
YELLOWSTONE LA   N/A     73  22  14 VRB3      30.35S
IDAHO FALLS    SUNNY     85  26  11 S8        30.11F
SALMON         SUNNY     88  39  18 NW5       29.98F
BOISE          SUNNY     92  31  11 NW8       29.98F
SPOKANE        MOSUNNY   85  43  22 W5        30.03F
$$

REGIONAL REPORTS...ALBERTA

CITY           SKY/WX    TMP DP  RH WIND       PRES   REMARKS
EDMONTON       SUNNY     79  48  34 W8        29.86S
CALGARY        MOSUNNY   77  52  41 S15G23    29.95S
LETHBRIDGE     MOSUNNY   82  48  30 W12       29.95F
MEDICINE HAT   MOSUNNY   82  52  34 SW10      29.94F
WATERTON GATE    N/A     77  48  36 SW15G22     N/A
MILK RIVER       N/A     84  41  21 S9          N/A
ONEFOUR          N/A     84  39  20 W8          N/A
$$

REGIONAL REPORTS...SASKATCHEWAN

CITY           SKY/WX    TMP DP  RH WIND       PRES   REMARKS
SWIFT CURRENT  SUNNY     77  59  53 S7        29.98S
REGINA         MOSUNNY   77  55  47 NW7       29.98F
SASKATOON      MOSUNNY   79  57  47 SW16      29.93S
CYPRESS HILLS    N/A     73  50  43 N3          N/A
VAL MARIE        N/A     82  48  30 W6          N/A
ROCKGLEN         N/A     81  48  32 W7          N/A
ASSINIBOIA       N/A     79  54  41 SW12        N/A
$$




USA.gov is the U.S. government's official web portal to all federal, state and local government web resources and services.